Weather History for Doha, Qatar

Change the Weather History Date:

Saturday, October 15, 2011

  Actual Average Record
Temperature  
Mean Temperature 89 °F -  
Max Temperature 98 °F 90 °F 104 °F (2004)
Min Temperature 80 °F 70 °F 74 °F (2013)
Cooling Degree Days 24    
Growing Degree Days 39 (Base 50)    
Moisture  
Dew Point 71 °F    
Average Humidity 59    
Maximum Humidity 84    
Minimum Humidity 21    
Precipitation  
Precipitation 0.00 in 0.00 in - ()
Sea Level Pressure  
Sea Level Pressure 29.91 in    
Wind  
Wind Speed 6 mph ()    
Max Wind Speed 10 mph    
Max Gust Speed -    
Visibility 4.6 miles    
Events      
Averages and records for this station are not official NWS values.
T = Trace of Precipitation, MM = Missing Value Source: Averaged Metar Reports

Daily Weather History Graph

Daily Weather History Graph

Search for Another Location

Airport:

Trip Planner

Search our weather history database for the weather conditions in past years. The results will help you decide how hot, cold, wet, or windy it might be!

Date:

Astronomy

Oct. 15, 2011 Rise Set
Actual Time 5:31 AM AST 5:07 PM AST
Civil Twilight 5:08 AM AST 5:30 PM AST
Nautical Twilight 4:42 AM AST 5:56 PM AST
Astronomical Twilight 4:15 AM AST 6:23 PM AST
Moon 7:09 PM AST (10/15) 8:11 AM AST (10/15)
Length of Visible Light 12h 21m
Length of Day
11h 35m
Waning Gibbous, 91% of the Moon is Illuminated
Oct 15
Waning Gibbous
Oct 20
Last Quarter
Oct 26
New
Nov 2
First Quarter
Nov 10
Full

Hourly Weather History & Observations

Time (AST) Temp. Heat Index Dew Point Humidity Pressure Visibility Wind Dir Wind Speed Gust Speed Precip Events Conditions
12:00 AM 84.2 °F 92.3 °F 75.2 °F 74% 29.92 in - NNW 6.9 mph - N/A   Clear
12:30 AM 84.2 °F 92.3 °F 75.2 °F 74% 29.92 in 5.6 mi NNW 6.9 mph - N/A   Unknown
1:00 AM 84.2 °F 92.3 °F 75.2 °F 74% 29.92 in 5.6 mi NNW 6.9 mph - N/A   Unknown
1:30 AM 84.2 °F 92.3 °F 75.2 °F 74% 29.92 in 5.0 mi NNW 5.8 mph - N/A   Unknown
2:00 AM 84.2 °F 92.3 °F 75.2 °F 74% 29.92 in 5.0 mi NNW 6.9 mph - N/A   Unknown
2:30 AM 84.2 °F 92.3 °F 75.2 °F 74% 29.89 in 5.0 mi NNW 4.6 mph - N/A   Unknown
3:00 AM 83 °F - 74 °F 68% 29.91 in 5 mi NNW 3.5 mph - -   Haze
3:00 AM 82.4 °F 88.2 °F 73.4 °F 74% 29.89 in 5.0 mi NNW 3.5 mph - N/A   Unknown
3:30 AM 82.4 °F 88.2 °F 73.4 °F 74% 29.89 in 5.0 mi NNW 4.6 mph - N/A   Unknown
4:00 AM 82.4 °F 88.2 °F 73.4 °F 74% 29.89 in 5.6 mi Variable 2.3 mph - N/A   Unknown
4:30 AM 82.4 °F 88.2 °F 73.4 °F 74% 29.92 in 5.6 mi Variable 2.3 mph - N/A   Unknown
5:00 AM 82.4 °F 88.2 °F 73.4 °F 74% 29.92 in 5.6 mi NW 3.5 mph - N/A   Unknown
5:30 AM 82.4 °F 88.2 °F 73.4 °F 74% 29.92 in 5.0 mi NW 3.5 mph - N/A   Unknown
6:00 AM 82.4 °F 88.2 °F 73.4 °F 74% 29.92 in 5.0 mi WNW 4.6 mph - N/A   Unknown
6:30 AM 82.4 °F 88.2 °F 73.4 °F 74% 29.95 in 5.0 mi WNW 4.6 mph - N/A   Unknown
7:00 AM 84.2 °F 90.9 °F 73.4 °F 70% 29.95 in 5.0 mi NW 4.6 mph - N/A   Unknown
7:30 AM 84.2 °F 90.9 °F 73.4 °F 70% 29.95 in 5.0 mi NW 4.6 mph - N/A   Unknown
8:00 AM 86.0 °F 91.8 °F 71.6 °F 62% 29.98 in 5.0 mi NW 4.6 mph - N/A   Unknown
8:30 AM 87.8 °F 93.8 °F 71.6 °F 58% 29.98 in 5.0 mi WNW 4.6 mph - N/A   Unknown
9:00 AM 90 °F - 64 °F 32% 29.98 in 6 mi NW 6.9 mph - -  
9:00 AM 89.6 °F 91.1 °F 64.4 °F 43% 29.98 in - NW 6.9 mph - N/A   Clear
9:30 AM 91.4 °F 92.1 °F 62.6 °F 38% 29.98 in - NW 6.9 mph - N/A   Clear
10:00 AM 93.2 °F 93.3 °F 60.8 °F 34% 29.95 in - NW 5.8 mph - N/A   Clear
10:30 AM 95.0 °F 96.0 °F 62.6 °F 34% 29.95 in - NNW 5.8 mph - N/A   Clear
11:00 AM 95.0 °F 95.2 °F 60.8 °F 32% 29.95 in - WNW 5.8 mph - N/A   Clear
11:30 AM 96.8 °F 97.1 °F 60.8 °F 30% 29.92 in - North 6.9 mph - N/A   Clear
12:00 PM 96.8 °F 97.1 °F 60.8 °F 30% 29.92 in - North 8.1 mph - N/A   Clear
12:30 PM 96.8 °F 98.0 °F 62.6 °F 32% 29.89 in - North 8.1 mph - N/A   Clear
1:00 PM 96.8 °F 97.1 °F 60.8 °F 30% 29.89 in - North 5.8 mph - N/A   Clear
1:30 PM 96.8 °F 97.1 °F 60.8 °F 30% 29.86 in - North 6.9 mph - N/A   Clear
2:00 PM 96.8 °F 98.0 °F 62.6 °F 32% 29.86 in - North 6.9 mph - N/A   Clear
2:30 PM 96.8 °F 98.0 °F 62.6 °F 32% 29.86 in - North 6.9 mph - N/A   Clear
3:00 PM 97 °F - 61 °F 21% 29.86 in 5 mi NNE 8.1 mph - -   Smoke
3:00 PM 96.8 °F 97.1 °F 60.8 °F 30% 29.86 in 5.0 mi NNE 8.1 mph - N/A   Unknown
3:30 PM 93.2 °F 98.8 °F 69.8 °F 46% 29.86 in 4.3 mi NNE 9.2 mph - N/A   Unknown
4:00 PM 91.4 °F 98.4 °F 71.6 °F 52% 29.86 in 4.3 mi NNE 9.2 mph - N/A   Unknown
4:30 PM 89.6 °F 102.2 °F 77.0 °F 66% 29.86 in 3.7 mi NNE 9.2 mph - N/A   Unknown
5:00 PM 89.6 °F 99.8 °F 75.2 °F 62% 29.86 in 3.7 mi NE 8.1 mph - N/A   Unknown
5:30 PM 89.6 °F 102.2 °F 77.0 °F 66% 29.86 in 3.7 mi NNE 6.9 mph - N/A   Unknown
6:00 PM 87.8 °F 97.6 °F 75.2 °F 66% 29.86 in 3.7 mi NNE 8.1 mph - N/A   Unknown
6:30 PM 87.8 °F 99.7 °F 77.0 °F 70% 29.89 in 3.7 mi NNE 8.1 mph - N/A   Unknown
7:00 PM 87.8 °F 99.7 °F 77.0 °F 70% 29.89 in 3.7 mi NNE 10.4 mph - N/A   Unknown
7:30 PM 87.8 °F 102.5 °F 78.8 °F 75% 29.89 in 3.7 mi North 9.2 mph - N/A   Unknown
8:00 PM 87.8 °F 97.6 °F 75.2 °F 66% 29.89 in 3.7 mi NNW 8.1 mph - N/A   Unknown
8:30 PM 86.0 °F 96.9 °F 77.0 °F 74% 29.89 in 4.3 mi NNW 8.1 mph - N/A   Unknown
9:00 PM 85 °F - 76 °F 68% 29.91 in 4 mi NNW 9.2 mph - -   Haze
9:00 PM 86.0 °F 96.9 °F 77.0 °F 74% 29.89 in 4.3 mi NNW 9.2 mph - N/A   Unknown
9:30 PM 86.0 °F 96.9 °F 77.0 °F 74% 29.89 in 4.3 mi NNW 8.1 mph - N/A   Unknown
10:00 PM 84.2 °F 94.1 °F 77.0 °F 79% 29.89 in 3.7 mi North 8.1 mph - N/A   Unknown
10:30 PM 84.2 °F 92.3 °F 75.2 °F 74% 29.89 in 3.7 mi NNW 5.8 mph - N/A   Unknown
11:00 PM 82.4 °F 89.5 °F 75.2 °F 79% 29.89 in 3.7 mi NNW 5.8 mph - N/A   Unknown
11:30 PM 82.4 °F 90.9 °F 77.0 °F 84% 29.89 in 3.7 mi NNW 6.9 mph - N/A   Unknown